Regional Weather Roundup
Issued by NWS

Home | Current Version | Previous Version | Graphics & Text | Print | Product List | Glossary On
Versions: 1 2 3 4 5 6 7 8 9 10 11 12 13 14 15 16 17 18 19 20 21 22 23 24 25 26 27 28 29 30 31 32 33 34 35 36 37 38 39 40 41 42 43 44 45 46 47 48 49 50
000
ASUS43 KLOT 240003
RWRIL

ILLINOIS REGIONAL WEATHER ROUNDUP
NATIONAL WEATHER SERVICE CHICAGO/ROMEOVILLE IL
700 PM CDT FRI JUN 23 2017

NOTE: "FAIR" INDICATES FEW OR NO CLOUDS BELOW 12,000 FEET WITH NO
SIGNIFICANT WEATHER AND/OR OBSTRUCTIONS TO VISIBILITY.

* THESE STATIONS ARE NOT UNDER NWS QUALITY CONTROL. THEY ALSO MAY NOT
  REPORT WEATHER SUCH AS PRECIPITATION OR FOG.

ILZ001-002-007-009-015-016-024-240100-
NORTHWEST ILLINOIS

CITY           SKY/WX    TMP DP  RH WIND       PRES   REMARKS
MOLINE         SUNNY     75  53  46 NW18G29   29.83R
6HR MIN TEMP:  75; 6HR MAX TEMP:  84;

STERLING*      SUNNY     74  55  51 NW17      29.79R
SAVANNA*       PTSUNNY   74  55  52 NW13G20   29.80R
$$

ILZ003-004-008-010-011-017-018-240100-
NORTH CENTRAL ILLINOIS

CITY           SKY/WX    TMP DP  RH WIND       PRES   REMARKS
ROCKFORD       MOSUNNY   75  54  47 NW20G28   29.78R
6HR MIN TEMP:  75; 6HR MAX TEMP:  82;

FREEPORT*      MOSUNNY   71  53  52 NW13G24   29.79F
ROCHELLE*      MOSUNNY   73  56  56 NW17G26   29.78R
DE KALB*       MOSUNNY   74  56  52 NW18G25   29.77R
PERU*          MOSUNNY   74  56  53 NW20G25   29.79R
$$

ILZ005-006-012>014-019>023-240100-
NORTHEAST ILLINOIS

CITY           SKY/WX    TMP DP  RH WIND       PRES   REMARKS
CHICAGO-OHARE  PTSUNNY   79  51  37 W13       29.71R
6HR MIN TEMP:  79; 6HR MAX TEMP:  83;

CHICAGO-MIDWAY PTSUNNY   79  53  40 W12       29.72R
6HR MIN TEMP:  79; 6HR MAX TEMP:  83;

AURORA         MOSUNNY   76  55  48 W23G32    29.75R
6HR MIN TEMP:  76; 6HR MAX TEMP:  81;

LANSING*       PTSUNNY   77  50  38 W8        29.73R
JOLIET*        PTSUNNY   80  58  46 W10       29.74R HX  80
WAUKEGAN       CLOUDY    77  52  41 W9G18     29.71R
6HR MIN TEMP:  76; 6HR MAX TEMP:  81;

DUPAGE AIRPORT CLOUDY    77  54  44 W16G25    29.73R
6HR MIN TEMP:  76; 6HR MAX TEMP:  81;

WHEELING       CLOUDY    78  51  38 W10       29.73R
6HR MIN TEMP:  78; 6HR MAX TEMP:  81;

MORRIS*        MOSUNNY   78  56  45 NW21G26   29.73S
ROMEOVILLE*    PTSUNNY   79  53  40 NW15      29.74R
NORTHERLY ISL    N/A     78  47  33 W8          N/A
$$

LMZ740>746-240100-
SOUTHERN LAKE MICHIGAN

STATION/POSITION SKY/WX   TEMP    WIND        PRES    VSBY  WAVE
                          AIR SEA DIR/SP/G                  HT/PER
                          (F)     (DEG/KT/KT) (MB)    (MI)  (FT/S)
SOUTHERN BUOY              66 63  210/  8/  8 1005.1          0
WILMETTE HARBOR            74 67  290/ 12/ 16   N/A           1/ 3
HARRISON CRIB              77     300/ 13/ 16   N/A
BURNHAM HARBOR             78                   N/A
CALUMET HARBOR             80     290/  5/  9 1005.8R
BURNS HARBOR               74        CALM     1006.8S
MICHIGAN CITY              74      40/  1/  1   N/A
MICHIGAN CITY 6N           71 70  200/  2/  2   N/A           1
ST. JOSEPH                 70 69  200/  4/  4 1005.8F         1/ 3
$$

ILZ025>027-034>036-040-047-049-050-058-095>099-240100-
WEST-CENTRAL ILLINOIS

CITY           SKY/WX    TMP DP  RH WIND       PRES   REMARKS
QUINCY         SUNNY     78  53  41 NW20G26   29.87R
GALESBURG*     SUNNY     73  53  48 NW13G23   29.85R
MACOMB*        SUNNY     75  54  47 NW17G23   29.87R
JACKSONVILLE*  CLOUDY    81  53  38 NW13      29.82R HX  80
PITTSFIELD*    CLOUDY    80  52  37 NW14G21   29.86R HX  80
$$

ILZ028>032-037-038-041>044-048-051>054-059>061-240100-
CENTRAL ILLINOIS

CITY           SKY/WX    TMP DP  RH WIND       PRES   REMARKS
PONTIAC        PTSUNNY   77  62  58 W9        29.77R
BLOOMINGTON    MOSUNNY   78  57  48 NW12G22   29.80R
DECATUR        PTSUNNY   77  53  43 NW8       29.79R
PEORIA         CLOUDY    77  56  48 NW10G22   29.81R
6HR MIN TEMP:  77; 6HR MAX TEMP:  83;

LACON*         MOSUNNY   75  57  53 NW20G26   29.79R
LINCOLN*       MOSUNNY   80  58  45 NW5       29.79R HX  81
SPRINGFIELD    CLOUDY    80  58  46 NW9       29.81R HX  80
6HR MIN TEMP:  80; 6HR MAX TEMP:  86;

TAYLORVILLE    MOSUNNY   77  59  54 NW5       29.81R
6HR MIN TEMP:  76; 6HR MAX TEMP:  82;

$$

ILZ033-039-045-046-055>057-062-063-240100-
EAST-CENTRAL ILLINOIS

CITY           SKY/WX    TMP DP  RH WIND       PRES   REMARKS
CHAMPAIGN      MOSUNNY   78  55  44 NW8       29.78R
RANTOUL*       CLOUDY    79  58  49 NW10      29.77R HX  80
MATTOON        MOSUNNY   79  60  52 NW10      29.78R HX  80
PARIS*         MOSUNNY   74  63  67 N6        29.78R
$$

ILZ079-100>102-240100-
SOUTHWEST ILLINOIS

CITY           SKY/WX    TMP DP  RH WIND       PRES   REMARKS
ALTON          PTSUNNY   77  63  61 W7        29.84R
BELLEVILLE     CLOUDY    79  56  45 NW8       29.84R
CAHOKIA*       CLOUDY    81  50  33 NW14      29.83R HX  80
SPARTA*        PTSUNNY   78  58  50 NW8       29.83R
$$

ILZ064>066-069>071-074>076-080>082-084>086-088>090-092>094-240100-
SOUTH-CENTRAL ILLINOIS

CITY           SKY/WX    TMP DP  RH WIND       PRES   REMARKS
CARBONDALE     CLOUDY    76  65  68 NW7       29.81R
6HR MIN TEMP:  76; 6HR MAX TEMP:  86;

CAIRO*         DRIZZLE   79  71  76 NW12      29.80R HX  82
EFFINGHAM*     CLOUDY    80  62  55 NW7       29.80R HX  81
MT. VERNON     CLOUDY    77  61  57 VRB3      29.81R
CENTRALIA*     CLOUDY    78  64  61 NW8       29.80R HX  80
SALEM*         CLOUDY    78  62  57 NW7       29.81R
METROPOLIS*    CLOUDY    75  73  94 CALM      29.80R
$$

ILZ067-068-072-073-078-083-087-091-240100-
SOUTHEAST ILLINOIS

CITY           SKY/WX    TMP DP  RH WIND       PRES   REMARKS
LAWRENCEVILLE  PTSUNNY   76  71  85 N8        29.76R
FLORA*         CLOUDY    78  64  61 NW6       29.80R HX  80
FAIRFIELD*     CLOUDY    77  65  66 N8        29.78R
HARRISBURG*    CLOUDY    78  73  83 N5        29.79R HX  81
ROBINSON*      CLOUDY    75  68  78 N8        29.77R
CARMI*         CLOUDY    78  72  82 NW17G23   29.77R HAZE
$$

ABBREVIATIONS USED IN REMARKS
   TC - TEMPERATURE IN CELSIUS
  WCI - WIND CHILL INDEX
   HX - HEAT INDEX
  VSB - VISIBILITY
$$





USA.gov is the U.S. government's official web portal to all federal, state and local government web resources and services.